Location: Asheville, NC
(35.6000°N, 82.5500°W)
Time: 16:15:28
(UTC-05:00)

Vanguard 2 Rocket - Pass Details

Date: 10 February 2018
Orbit: 555 x 3327 km, 32.9° (Epoch: 21 February)

Event Time Altitude Azimuth Distance (km) Brightness Sun altitude
Rises 03:05:11 0° 253° (WSW) 6,714 - -52.0°
Reaches altitude 10° 03:09:17 10° 252° (WSW) 5,920 - -51.2°
Exits shadow 03:28:51 79° 180° (S) 3,340 9.3 -47.5°
Maximum altitude 03:29:14 79° 170° (S) 3,334 9.4 -47.5°
Drops below altitude 10° 03:47:10 10° 87° (E) 5,410 11.4 -44.0°
Sets 03:50:43 0° 86° (E) 6,140 11.9 -43.3°
